QPF
0.17 0.18 0.18 0.13 0.09 0.07 0.06 0.06 0.06 0.05 0.05 0.08 0.10 0.09 0.11 0.11 0.13 0.11 0.05 0.04 0.03 0.03 0.05 0.07 0.08 0.14 0.28 0.19 0.19 0.17 0.13 0.12 0.14 0.13 0.14 0.16 0.15 0.14 0.13 0.13 0.15 0.17 0.13
0.17 0.12 0.09 0.12 0.09 0.08 0.06 0.05 0.07 0.09 0.10 0.11 0.11 0.12 0.13 0.09 0.07 0.07 0.04 0.04 0.04 0.04 0.06 0.08 0.10 0.23 0.33 0.17 0.14 0.11 0.10 0.11 0.14 0.12 0.13 0.14 0.13 0.11 0.10 0.11 0.18 0.18 0.13
0.13 0.08 0.05 0.08 0.07 0.08 0.06 0.05 0.08 0.07 0.07 0.08 0.11 0.12 0.08 0.05 0.05 0.07 0.06 0.05 0.04 0.06 0.10 0.14 0.13 0.24 0.24 0.17 0.15 0.12 0.11 0.12 0.14 0.14 0.15 0.13 0.13 0.12 0.11 0.13 0.12 0.12 0.10
0.10 0.08 0.06 0.06 0.07 0.07 0.06 0.06 0.04 0.05 0.05 0.06 0.05 0.05 0.05 0.05 0.06 0.07 0.06 0.06 0.06 0.07 0.09 0.11 0.14 0.17 0.17 0.14 0.14 0.13 0.10 0.09 0.12 0.14 0.15 0.12 0.10 0.12 0.11 0.11 0.11 0.11 0.12
0.06 0.06 0.06 0.06 0.08 0.09 0.08 0.07 0.08 0.09 0.09 0.08 0.06 0.05 0.06 0.07 0.07 0.07 0.06 0.05 0.06 0.06 0.08 0.08 0.11 0.15 0.15 0.13 0.12 0.12 0.09 0.09 0.12 0.14 0.12 0.13 0.12 0.12 0.08 0.09 0.10 0.12 0.16
0.04 0.04 0.05 0.07 0.09 0.08 0.08 0.11 0.10 0.09 0.09 0.09 0.08 0.07 0.07 0.08 0.07 0.06 0.06 0.06 0.08 0.08 0.08 0.07 0.07 0.10 0.11 0.12 0.13 0.11 0.12 0.12 0.14 0.13 0.13 0.14 0.12 0.09 0.09 0.08 0.10 0.12 0.15
0.03 0.04 0.05 0.07 0.08 0.08 0.11 0.12 0.07 0.06 0.07 0.08 0.07 0.09 0.10 0.08 0.08 0.09 0.08 0.08 0.09 0.10 0.10 0.09 0.10 0.09 0.09 0.09 0.11 0.12 0.14 0.14 0.14 0.12 0.16 0.15 0.12 0.08 0.09 0.09 0.11 0.17 0.22
0.04 0.05 0.07 0.09 0.08 0.09 0.13 0.12 0.09 0.08 0.08 0.07 0.06 0.09 0.12 0.11 0.10 0.10 0.10 0.10 0.11 0.12 0.14 0.14 0.13 0.11 0.08 0.10 0.13 0.16 0.14 0.17 0.15 0.16 0.19 0.16 0.15 0.10 0.09 0.10 0.14 0.20 0.23
0.04 0.06 0.10 0.10 0.07 0.07 0.11 0.14 0.13 0.11 0.08 0.06 0.06 0.08 0.14 0.19 0.15 0.10 0.11 0.12 0.12 0.13 0.18 0.20 0.16 0.11 0.09 0.11 0.20 0.22 0.14 0.19 0.17 0.20 0.15 0.13 0.13 0.11 0.09 0.08 0.09 0.09 0.09
0.03 0.06 0.11 0.12 0.09 0.06 0.06 0.09 0.08 0.07 0.08 0.08 0.07 0.12 0.23 0.19 0.18 0.16 0.13 0.13 0.13 0.15 0.23 0.24 0.16 0.12 0.13 0.19 0.26 0.22 0.19 0.19 0.16 0.16 0.15 0.14 0.10 0.08 0.07 0.07 0.08 0.07 0.06
0.05 0.07 0.10 0.12 0.09 0.07 0.06 0.06 0.08 0.08 0.09 0.10 0.11 0.16 0.27 0.19 0.16 0.20 0.18 0.13 0.14 0.18 0.25 0.25 0.17 0.14 0.16 0.19 0.20 0.21 0.21 0.16 0.13 0.17 0.16 0.13 0.11 0.10 0.09 0.08 0.08 0.08 0.08
0.03 0.05 0.08 0.10 0.09 0.06 0.08 0.09 0.10 0.08 0.09 0.09 0.11 0.16 0.31 0.31 0.23 0.21 0.21 0.19 0.19 0.22 0.24 0.25 0.21 0.15 0.13 0.13 0.16 0.21 0.20 0.15 0.12 0.14 0.11 0.10 0.10 0.11 0.10 0.09 0.08 0.09 0.08
0.04 0.04 0.07 0.08 0.08 0.08 0.10 0.10 0.10 0.10 0.11 0.10 0.11 0.12 0.17 0.25 0.25 0.21 0.19 0.24 0.26 0.26 0.22 0.20 0.18 0.14 0.12 0.12 0.16 0.21 0.20 0.13 0.10 0.12 0.12 0.11 0.10 0.11 0.10 0.09 0.08 0.08 0.08
0.05 0.04 0.04 0.06 0.08 0.09 0.10 0.12 0.13 0.11 0.09 0.08 0.10 0.13 0.14 0.14 0.15 0.14 0.16 0.21 0.27 0.25 0.20 0.16 0.15 0.15 0.14 0.14 0.18 0.24 0.18 0.11 0.09 0.13 0.15 0.12 0.08 0.09 0.10 0.09 0.08 0.08 0.08
0.02 0.03 0.03 0.04 0.07 0.09 0.10 0.13 0.12 0.09 0.09 0.07 0.07 0.07 0.09 0.09 0.09 0.09 0.10 0.12 0.17 0.19 0.16 0.13 0.16 0.17 0.16 0.16 0.19 0.22 0.13 0.10 0.11 0.13 0.14 0.10 0.09 0.09 0.10 0.09 0.08 0.08 0.09
0.02 0.03 0.03 0.04 0.05 0.07 0.09 0.11 0.11 0.09 0.11 0.07 0.06 0.04 0.05 0.06 0.07 0.06 0.07 0.11 0.13 0.15 0.15 0.15 0.18 0.20 0.19 0.20 0.21 0.20 0.12 0.10 0.13 0.13 0.12 0.11 0.08 0.07 0.06 0.06 0.07 0.07 0.08
0.02 0.03 0.03 0.03 0.03 0.03 0.05 0.07 0.08 0.10 0.14 0.07 0.05 0.04 0.04 0.05 0.06 0.07 0.07 0.08 0.10 0.12 0.17 0.19 0.23 0.24 0.21 0.21 0.20 0.20 0.17 0.13 0.13 0.14 0.10 0.10 0.11 0.09 0.06 0.05 0.06 0.06 0.07
0.02 0.03 0.04 0.03 0.02 0.02 0.03 0.04 0.04 0.04 0.05 0.04 0.03 0.03 0.03 0.04 0.05 0.08 0.06 0.05 0.07 0.08 0.13 0.18 0.23 0.25 0.23 0.18 0.15 0.14 0.16 0.15 0.11 0.10 0.09 0.09 0.11 0.11 0.07 0.05 0.04 0.04 0.05
0.02 0.02 0.03 0.03 0.02 0.02 0.03 0.04 0.04 0.03 0.03 0.03 0.02 0.03 0.03 0.03 0.05 0.07 0.06 0.09 0.07 0.06 0.09 0.12 0.16 0.21 0.18 0.14 0.11 0.09 0.10 0.13 0.14 0.12 0.11 0.09 0.08 0.09 0.07 0.05 0.03 0.03 0.04
0.02 0.02 0.02 0.02 0.03 0.03 0.04 0.04 0.04 0.03 0.02 0.03 0.04 0.03 0.02 0.03 0.04 0.05 0.06 0.09 0.07 0.08 0.09 0.10 0.13 0.12 0.11 0.11 0.08 0.08 0.07 0.07 0.11 0.13 0.14 0.13 0.09 0.07 0.06 0.08 0.05 0.05 0.05
0.02 0.02 0.02 0.02 0.03 0.04 0.04 0.04 0.04 0.04 0.02 0.03 0.03 0.02 0.02 0.03 0.03 0.05 0.05 0.06 0.06 0.08 0.09 0.07 0.07 0.08 0.09 0.08 0.08 0.09 0.07 0.07 0.07 0.11 0.16 0.14 0.09 0.08 0.08 0.11 0.08 0.05 0.04
0.02 0.03 0.03 0.02 0.03 0.04 0.04 0.05 0.04 0.04 0.04 0.03 0.02 0.02 0.02 0.04 0.04 0.04 0.04 0.05 0.06 0.07 0.08 0.07 0.07 0.07 0.07 0.07 0.07 0.08 0.09 0.09 0.07 0.07 0.11 0.12 0.09 0.09 0.09 0.07 0.09 0.06 0.05
0.02 0.03 0.03 0.03 0.03 0.04 0.04 0.04 0.05 0.06 0.05 0.04 0.04 0.04 0.04 0.05 0.04 0.03 0.04 0.05 0.06 0.07 0.09 0.07 0.05 0.06 0.07 0.08 0.08 0.07 0.07 0.09 0.09 0.09 0.11 0.11 0.10 0.10 0.08 0.07 0.06 0.05 0.04
0.01 0.01 0.03 0.02 0.03 0.03 0.03 0.04 0.04 0.05 0.05 0.05 0.05 0.04 0.05 0.05 0.04 0.03 0.03 0.03 0.04 0.03 0.05 0.05 0.04 0.06 0.08 0.07 0.06 0.07 0.06 0.07 0.09 0.09 0.09 0.10 0.10 0.09 0.07 0.07 0.07 0.07 0.05
0.01 0.02 0.02 0.02 0.02 0.02 0.02 0.02 0.03 0.04 0.05 0.04 0.04 0.04 0.04 0.04 0.03 0.03 0.02 0.03 0.03 0.03 0.03 0.04 0.04 0.05 0.07 0.07 0.07 0.07 0.07 0.06 0.07 0.08 0.10 0.09 0.08 0.08 0.07 0.07 0.06 0.09 0.06
0.01 0.01 0.02 0.02 0.03 0.03 0.03 0.02 0.03 0.03 0.04 0.03 0.03 0.04 0.03 0.02 0.02 0.02 0.01 0.02 0.02 0.02 0.03 0.04 0.04 0.05 0.06 0.06 0.07 0.06 0.06 0.06 0.07 0.08 0.09 0.07 0.06 0.06 0.06 0.08 0.08 0.06 0.04
MSLP
1001.99 1001.65 1001.56 1001.69 1001.98 1002.35 1002.74 1003.08 1003.36 1003.57 1003.76 1003.97 1004.26 1004.64 1005.11 1005.66 1006.25 1006.83 1007.38 1007.87 1008.29 1008.67 1009.03 1009.40 1009.77 1010.17 1010.57 1010.95 1011.28 1011.56 1011.77 1011.93 1012.05 1012.16 1012.28 1012.43 1012.62 1012.85 1013.09 1013.34 1013.58 1013.80 1014.00
1001.85 1001.42 1001.17 1001.12 1001.22 1001.44 1001.72 1002.02 1002.34 1002.66 1003.01 1003.41 1003.86 1004.38 1004.96 1005.57 1006.19 1006.78 1007.33 1007.83 1008.29 1008.72 1009.13 1009.54 1009.96 1010.37 1010.76 1011.12 1011.43 1011.68 1011.88 1012.04 1012.17 1012.31 1012.47 1012.65 1012.86 1013.09 1013.34 1013.58 1013.82 1014.04 1014.25
1001.52 1000.94 1000.49 1000.19 1000.06 1000.09 1000.27 1000.57 1000.98 1001.48 1002.07 1002.72 1003.40 1004.11 1004.80 1005.47 1006.08 1006.65 1007.17 1007.66 1008.13 1008.60 1009.08 1009.56 1010.03 1010.48 1010.88 1011.24 1011.53 1011.78 1011.97 1012.14 1012.30 1012.46 1012.64 1012.84 1013.06 1013.29 1013.53 1013.77 1014.00 1014.23 1014.45
1001.00 1000.24 999.53 998.94 998.54 998.36 998.42 998.74 999.29 1000.03 1000.92 1001.88 1002.86 1003.78 1004.61 1005.34 1005.95 1006.48 1006.95 1007.40 1007.87 1008.37 1008.90 1009.45 1009.99 1010.49 1010.93 1011.30 1011.60 1011.85 1012.05 1012.23 1012.41 1012.59 1012.79 1013.00 1013.22 1013.44 1013.67 1013.90 1014.13 1014.37 1014.61
1000.36 999.38 998.38 997.47 996.77 996.36 996.31 996.65 997.36 998.37 999.59 1000.91 1002.21 1003.39 1004.39 1005.20 1005.82 1006.30 1006.72 1007.13 1007.58 1008.09 1008.67 1009.28 1009.88 1010.44 1010.92 1011.32 1011.63 1011.89 1012.10 1012.30 1012.50 1012.71 1012.92 1013.14 1013.35 1013.56 1013.77 1013.98 1014.21 1014.46 1014.73
999.73 998.51 997.20 995.96 994.95 994.31 994.14 994.49 995.34 996.61 998.17 999.85 1001.49 1002.95 1004.15 1005.06 1005.71 1006.18 1006.55 1006.91 1007.34 1007.86 1008.46 1009.12 1009.77 1010.37 1010.88 1011.30 1011.64 1011.91 1012.14 1012.36 1012.59 1012.81 1013.04 1013.26 1013.46 1013.65 1013.84 1014.04 1014.27 1014.53 1014.81
999.23 997.78 996.20 994.65 993.35 992.48 992.17 992.51 993.47 994.96 996.81 998.82 1000.77 1002.50 1003.90 1004.94 1005.65 1006.13 1006.49 1006.83 1007.24 1007.75 1008.36 1009.03 1009.70 1010.32 1010.85 1011.29 1011.64 1011.93 1012.18 1012.42 1012.67 1012.92 1013.16 1013.38 1013.58 1013.76 1013.93 1014.11 1014.33 1014.60 1014.90
998.99 997.38 995.57 993.78 992.23 991.15 990.70 990.99 992.00 993.63 995.69 997.94 1000.15 1002.10 1003.69 1004.87 1005.67 1006.19 1006.56 1006.90 1007.29 1007.80 1008.40 1009.06 1009.73 1010.34 1010.87 1011.30 1011.65 1011.95 1012.22 1012.49 1012.76 1013.03 1013.29 1013.52 1013.72 1013.89 1014.05 1014.22 1014.44 1014.70 1015.01
999.11 997.42 995.50 993.55 991.83 990.58 990.00 990.20 991.19 992.85 995.00 997.38 999.74 1001.85 1003.57 1004.87 1005.76 1006.35 1006.76 1007.12 1007.52 1008.01 1008.60 1009.23 1009.86 1010.45 1010.95 1011.37 1011.71 1012.01 1012.29 1012.57 1012.86 1013.16 1013.43 1013.67 1013.87 1014.05 1014.21 1014.38 1014.59 1014.85 1015.15
999.62 997.96 996.04 994.04 992.25 990.90 990.21 990.30 991.19 992.78 994.89 997.27 999.64 1001.80 1003.59 1004.96 1005.93 1006.59 1007.06 1007.46 1007.88 1008.37 1008.93 1009.53 1010.12 1010.66 1011.12 1011.50 1011.82 1012.11 1012.39 1012.69 1012.99 1013.29 1013.58 1013.83 1014.05 1014.23 1014.40 1014.57 1014.79 1015.05 1015.34
1000.49 998.98 997.17 995.26 993.49 992.12 991.35 991.32 992.06 993.49 995.44 997.67 999.93 1002.02 1003.78 1005.16 1006.17 1006.89 1007.42 1007.88 1008.33 1008.83 1009.38 1009.94 1010.48 1010.96 1011.37 1011.71 1012.01 1012.28 1012.55 1012.84 1013.15 1013.45 1013.74 1014.00 1014.22 1014.41 1014.60 1014.79 1015.02 1015.27 1015.56
1001.64 1000.36 998.77 997.05 995.42 994.11 993.32 993.18 993.74 994.94 996.62 998.59 1000.62 1002.53 1004.17 1005.48 1006.49 1007.24 1007.83 1008.34 1008.84 1009.36 1009.89 1010.43 1010.92 1011.36 1011.72 1012.02 1012.29 1012.54 1012.79 1013.07 1013.35 1013.64 1013.91 1014.16 1014.38 1014.58 1014.78 1015.00 1015.24 1015.51 1015.79
1002.93 1001.93 1000.65 999.21 997.80 996.63 995.87 995.66 996.05 996.97 998.34 999.97 1001.68 1003.30 1004.74 1005.93 1006.88 1007.64 1008.26 1008.82 1009.37 1009.91 1010.45 1010.97 1011.43 1011.83 1012.16 1012.43 1012.67 1012.89 1013.12 1013.37 1013.62 1013.87 1014.10 1014.32 1014.52 1014.73 1014.94 1015.18 1015.45 1015.74 1016.02
1004.20 1003.51 1002.56 1001.44 1000.31 999.35 998.69 998.46 998.69 999.37 1000.40 1001.66 1003.00 1004.30 1005.48 1006.49 1007.35 1008.07 1008.71 1009.31 1009.90 1010.47 1011.03 1011.54 1011.99 1012.37 1012.67 1012.93 1013.14 1013.35 1013.55 1013.76 1013.96 1014.15 1014.33 1014.50 1014.67 1014.85 1015.07 1015.32 1015.62 1015.93 1016.23
1005.33 1004.91 1004.28 1003.49 1002.67 1001.95 1001.45 1001.25 1001.38 1001.85 1002.58 1003.48 1004.45 1005.42 1006.32 1007.13 1007.87 1008.54 1009.17 1009.80 1010.42 1011.03 1011.60 1012.12 1012.56 1012.93 1013.24 1013.48 1013.70 1013.89 1014.07 1014.24 1014.39 1014.52 1014.63 1014.73 1014.84 1014.99 1015.19 1015.45 1015.75 1016.09 1016.41
1006.20 1006.00 1005.63 1005.13 1004.61 1004.15 1003.83 1003.71 1003.82 1004.14 1004.63 1005.23 1005.88 1006.54 1007.18 1007.80 1008.41 1009.02 1009.64 1010.28 1010.93 1011.56 1012.14 1012.67 1013.12 1013.49 1013.80 1014.06 1014.29 1014.49 1014.67 1014.81 1014.92 1014.98 1015.02 1015.04 1015.09 1015.18 1015.34 1015.58 1015.88 1016.22 1016.56
1006.81 1006.73 1006.55 1006.29 1006.02 1005.79 1005.67 1005.67 1005.80 1006.05 1006.37 1006.75 1007.16 1007.57 1008.00 1008.45 1008.94 1009.49 1010.09 1010.74 1011.39 1012.04 1012.63 1013.16 1013.61 1014.00 1014.33 1014.61 1014.87 1015.10 1015.29 1015.44 1015.52 1015.55 1015.52 1015.47 1015.44 1015.46 1015.57 1015.76 1016.04 1016.37 1016.70
1007.19 1007.16 1007.08 1006.97 1006.89 1006.87 1006.92 1007.05 1007.24 1007.47 1007.71 1007.95 1008.18 1008.42 1008.69 1009.01 1009.42 1009.92 1010.50 1011.14 1011.80 1012.44 1013.03 1013.56 1014.01 1014.40 1014.75 1015.08 1015.38 1015.66 1015.90 1016.08 1016.18 1016.19 1016.14 1016.04 1015.94 1015.89 1015.92 1016.05 1016.27 1016.55 1016.85
1007.42 1007.39 1007.33 1007.30 1007.34 1007.46 1007.65 1007.90 1008.17 1008.42 1008.63 1008.80 1008.93 1009.06 1009.22 1009.47 1009.82 1010.29 1010.85 1011.48 1012.13 1012.76 1013.33 1013.84 1014.28 1014.67 1015.04 1015.41 1015.77 1016.12 1016.44 1016.69 1016.84 1016.89 1016.84 1016.72 1016.58 1016.47 1016.42 1016.46 1016.60 1016.81 1017.05
1007.63 1007.54 1007.47 1007.46 1007.54 1007.74 1008.02 1008.36 1008.69 1008.98 1009.20 1009.34 1009.42 1009.50 1009.62 1009.82 1010.14 1010.58 1011.13 1011.75 1012.38 1012.97 1013.52 1013.99 1014.41 1014.79 1015.17 1015.57 1016.00 1016.43 1016.85 1017.20 1017.45 1017.57 1017.57 1017.48 1017.33 1017.17 1017.05 1017.01 1017.05 1017.17 1017.32
1007.88 1007.75 1007.63 1007.59 1007.68 1007.90 1008.22 1008.60 1008.98 1009.30 1009.53 1009.67 1009.75 1009.81 1009.90 1010.09 1010.39 1010.82 1011.36 1011.95 1012.55 1013.11 1013.61 1014.03 1014.41 1014.76 1015.14 1015.57 1016.05 1016.56 1017.08 1017.55 1017.93 1018.17 1018.27 1018.24 1018.12 1017.95 1017.79 1017.67 1017.62 1017.63 1017.68
1008.22 1008.06 1007.91 1007.84 1007.89 1008.10 1008.41 1008.80 1009.19 1009.53 1009.77 1009.92 1010.00 1010.05 1010.14 1010.32 1010.61 1011.03 1011.55 1012.11 1012.67 1013.18 1013.62 1013.99 1014.30 1014.62 1014.97 1015.40 1015.92 1016.50 1017.11 1017.71 1018.22 1018.60 1018.82 1018.90 1018.85 1018.72 1018.55 1018.39 1018.25 1018.16 1018.11
1008.62 1008.49 1008.33 1008.23 1008.25 1008.42 1008.71 1009.08 1009.46 1009.79 1010.04 1010.19 1010.26 1010.32 1010.40 1010.57 1010.85 1011.25 1011.73 1012.26 1012.77 1013.22 1013.60 1013.89 1014.14 1014.40 1014.71 1015.11 1015.63 1016.25 1016.93 1017.63 1018.27 1018.79 1019.17 1019.37 1019.44 1019.38 1019.24 1019.07 1018.90 1018.74 1018.61
1009.03 1008.96 1008.83 1008.73 1008.74 1008.88 1009.13 1009.47 1009.83 1010.15 1010.39 1010.53 1010.61 1010.65 1010.73 1010.88 1011.14 1011.50 1011.94 1012.42 1012.87 1013.26 1013.57 1013.79 1013.97 1014.15 1014.39 1014.75 1015.23 1015.85 1016.57 1017.33 1018.06 1018.71 1019.23 1019.58 1019.78 1019.83 1019.78 1019.65 1019.48 1019.31 1019.13
1009.35 1009.38 1009.32 1009.26 1009.27 1009.40 1009.64 1009.95 1010.29 1010.60 1010.83 1010.97 1011.04 1011.08 1011.14 1011.26 1011.48 1011.79 1012.18 1012.59 1012.98 1013.31 1013.55 1013.70 1013.81 1013.91 1014.08 1014.36 1014.79 1015.36 1016.06 1016.84 1017.63 1018.37 1019.00 1019.50 1019.83 1020.02 1020.09 1020.05 1019.94 1019.80 1019.63
1009.50 1009.65 1009.69 1009.69 1009.75 1009.89 1010.14 1010.45 1010.79 1011.09 1011.33 1011.47 1011.54 1011.57 1011.60 1011.69 1011.85 1012.11 1012.43 1012.78 1013.10 1013.37 1013.55 1013.64 1013.69 1013.72 1013.81 1014.01 1014.35 1014.85 1015.49 1016.24 1017.03 1017.81 1018.53 1019.13 1019.61 1019.94 1020.15 1020.24 1020.24 1020.18 1020.07
Thickness
5818 5818 5816 5815 5813 5812 5811 5810 5809 5808 5808 5808 5807 5807 5807 5806 5805 5804 5803 5802 5800 5799 5799 5798 5796 5794 5793 5792 5791 5790 5788 5787 5785 5784 5783 5781 5780 5779 5777 5776 5775 5773 5772
5822 5821 5818 5814 5812 5811 5810 5809 5808 5807 5807 5807 5807 5806 5806 5806 5805 5804 5802 5801 5800 5799 5798 5797 5796 5794 5793 5792 5790 5789 5788 5787 5785 5784 5783 5781 5780 5778 5777 5776 5775 5773 5771
5823 5821 5818 5813 5811 5810 5809 5808 5807 5807 5806 5807 5806 5806 5806 5805 5804 5803 5802 5801 5800 5799 5798 5797 5795 5794 5792 5791 5790 5789 5788 5787 5786 5785 5783 5782 5780 5779 5777 5776 5774 5773 5771
5824 5821 5816 5812 5811 5810 5809 5808 5807 5807 5806 5806 5806 5805 5805 5804 5804 5802 5801 5800 5800 5798 5797 5796 5795 5794 5792 5791 5790 5789 5788 5787 5786 5785 5784 5783 5782 5780 5778 5776 5774 5772 5771
5824 5820 5815 5813 5812 5811 5809 5808 5808 5807 5806 5805 5805 5805 5805 5804 5804 5802 5801 5800 5799 5798 5797 5795 5794 5793 5793 5791 5790 5790 5788 5787 5786 5785 5785 5784 5782 5781 5778 5776 5774 5773 5770
5823 5820 5815 5814 5813 5812 5811 5809 5808 5807 5806 5805 5805 5805 5805 5804 5804 5802 5801 5800 5798 5797 5796 5795 5794 5793 5792 5791 5790 5790 5789 5788 5787 5786 5786 5784 5782 5780 5778 5776 5775 5772 5770
5823 5820 5816 5814 5813 5813 5813 5812 5809 5808 5807 5806 5805 5805 5804 5804 5803 5802 5800 5799 5797 5796 5795 5794 5794 5793 5792 5792 5791 5790 5789 5788 5788 5787 5786 5784 5782 5780 5778 5776 5775 5772 5769
5825 5821 5818 5815 5814 5813 5813 5812 5809 5808 5807 5806 5805 5804 5804 5804 5803 5801 5800 5798 5797 5796 5795 5794 5793 5793 5793 5792 5792 5790 5790 5789 5789 5788 5786 5784 5782 5780 5778 5776 5774 5771 5769
5828 5823 5820 5817 5815 5813 5812 5811 5809 5807 5807 5806 5805 5805 5804 5804 5803 5801 5799 5798 5797 5795 5795 5794 5794 5794 5794 5794 5793 5791 5790 5789 5789 5787 5786 5784 5782 5780 5777 5775 5773 5771 5769
5828 5825 5822 5819 5817 5814 5812 5810 5808 5807 5806 5806 5805 5805 5804 5804 5803 5801 5799 5797 5796 5795 5795 5794 5794 5795 5795 5794 5793 5791 5790 5789 5788 5786 5785 5784 5783 5780 5777 5774 5772 5770 5768
5824 5824 5823 5821 5819 5818 5815 5811 5808 5807 5806 5805 5805 5805 5805 5805 5804 5801 5799 5797 5796 5795 5795 5794 5794 5795 5795 5794 5792 5790 5789 5788 5788 5786 5784 5784 5782 5779 5776 5773 5771 5769 5767
5818 5821 5822 5820 5819 5819 5816 5812 5810 5809 5806 5806 5806 5805 5805 5805 5803 5801 5797 5796 5795 5795 5794 5794 5794 5794 5794 5794 5793 5790 5789 5788 5787 5785 5783 5782 5780 5778 5775 5772 5770 5768 5766
5819 5819 5820 5819 5818 5817 5815 5813 5811 5810 5807 5807 5806 5805 5804 5802 5801 5798 5796 5794 5794 5794 5793 5793 5793 5793 5794 5794 5792 5791 5790 5788 5786 5785 5781 5780 5779 5776 5774 5771 5769 5767 5765
5818 5817 5817 5818 5815 5814 5814 5813 5811 5809 5807 5806 5804 5803 5802 5800 5798 5796 5794 5793 5793 5793 5791 5791 5790 5791 5791 5791 5790 5790 5789 5787 5785 5782 5780 5778 5777 5775 5772 5770 5768 5766 5764
5817 5816 5816 5816 5813 5812 5812 5811 5810 5808 5806 5804 5802 5801 5799 5797 5795 5793 5792 5791 5791 5791 5790 5789 5789 5788 5788 5788 5788 5788 5787 5785 5783 5781 5778 5776 5775 5773 5771 5768 5766 5765 5763
5817 5816 5816 5815 5813 5811 5810 5809 5808 5807 5804 5803 5801 5799 5798 5796 5794 5792 5790 5789 5789 5788 5788 5788 5787 5786 5785 5785 5785 5785 5784 5782 5780 5778 5776 5774 5772 5771 5769 5767 5765 5764 5762
5818 5817 5816 5815 5813 5810 5809 5809 5808 5807 5804 5802 5800 5798 5797 5795 5793 5791 5789 5787 5786 5786 5786 5786 5786 5785 5783 5782 5780 5780 5780 5779 5778 5776 5775 5773 5771 5769 5767 5766 5764 5763 5761
5821 5817 5817 5817 5813 5810 5809 5808 5808 5806 5804 5801 5799 5797 5795 5794 5792 5790 5788 5786 5785 5784 5783 5782 5781 5779 5778 5777 5776 5777 5777 5776 5776 5775 5774 5773 5770 5768 5766 5764 5762 5761 5760
5821 5818 5815 5814 5812 5810 5809 5808 5807 5805 5803 5800 5798 5795 5794 5793 5791 5789 5787 5785 5784 5782 5780 5779 5776 5775 5773 5772 5773 5773 5773 5773 5773 5773 5772 5772 5770 5767 5765 5762 5761 5760 5758
5822 5819 5815 5813 5811 5809 5808 5806 5804 5803 5801 5799 5796 5793 5792 5790 5789 5787 5785 5784 5783 5780 5777 5775 5772 5772 5771 5770 5771 5769 5769 5770 5770 5770 5770 5770 5769 5767 5765 5762 5760 5758 5756
5821 5817 5814 5811 5809 5807 5804 5801 5798 5796 5797 5795 5794 5792 5790 5788 5787 5785 5783 5781 5780 5777 5775 5773 5771 5769 5768 5769 5765 5762 5764 5767 5767 5767 5768 5767 5767 5766 5764 5762 5759 5757 5754
5820 5816 5813 5811 5809 5806 5804 5802 5800 5797 5796 5795 5793 5790 5788 5786 5784 5784 5781 5779 5777 5775 5773 5772 5769 5766 5766 5767 5762 5755 5751 5754 5760 5765 5764 5764 5764 5764 5762 5760 5758 5756 5754
5820 5817 5814 5811 5808 5806 5804 5803 5800 5797 5793 5790 5787 5786 5786 5784 5782 5780 5778 5777 5775 5773 5770 5769 5768 5765 5762 5764 5764 5757 5749 5744 5749 5755 5759 5760 5761 5760 5760 5759 5757 5755 5753
5821 5819 5814 5810 5806 5804 5803 5799 5795 5789 5785 5785 5784 5783 5783 5783 5781 5778 5776 5775 5773 5771 5768 5768 5767 5766 5763 5759 5761 5762 5760 5755 5747 5743 5750 5755 5757 5757 5757 5758 5756 5754 5752
5824 5819 5813 5809 5804 5802 5800 5798 5793 5789 5786 5785 5784 5781 5780 5779 5778 5776 5774 5772 5770 5768 5766 5765 5764 5763 5762 5759 5758 5757 5757 5756 5755 5746 5741 5746 5750 5753 5754 5755 5753 5751 5749
5825 5819 5813 5806 5801 5800 5798 5795 5791 5787 5784 5781 5779 5776 5776 5775 5774 5772 5771 5769 5767 5765 5763 5761 5760 5760 5758 5757 5756 5756 5753 5751 5749 5748 5743 5742 5742 5747 5751 5752 5751 5749 5747